Location: Unspecified
(64.9000°N, 0.0000°E)
Time: 00:37:35
(UTC+00:00)

A-11 Canister half - Pass Details

Date: 20 June 2019
Orbit: 1526 x 1683 km, 47.3° (Epoch: 18 August)

Event Time Altitude Azimuth Distance (km) Brightness Sun altitude
Rises 11:44:01 0° 271° (W) 4,682 11.5 48.4°
Reaches altitude 10° 11:50:15 10° 240° (WSW) 3,701 11.4 48.5°
Maximum altitude 11:52:31 11° 226° (SW) 3,618 11.5 48.5°
Drops below altitude 10° 11:54:46 10° 211° (SSW) 3,710 11.7 48.5°
Sets 12:01:06 0° 180° (S) 4,717 12.2 48.5°
